Location: Melara
(45.0500°N, 11.1833°E)
Time: 21:53:44
(UTC+00:00)

Cosmos 2333 Rocket - Pass Details

Date: 26 May 2022
Orbit: 839 x 863 km, 70.8° (Epoch: 04 July)

Event Time Altitude Azimuth Distance (km) Brightness Sun altitude
Exits shadow 00:19:41 12° 265° (W) 2,299 4.2 -22.1°
Maximum altitude 00:23:30 23° 312° (NW) 1,726 4.0 -21.9°
Drops below altitude 10° 00:27:57 10° 4° (N) 2,477 5.7 -21.6°
Sets 00:30:57 0° 19° (NNE) 3,420 6.9 -21.5°
